This is the latest recevied weather packets stored in our database for station/object N2WH. If no packets are shown the sender has not sent any weather packets the latest 10 day(s).
| Time | Temp. | Humidity | Pressure | Rain* | Wind** | Luminosity | Snow |
|---|---|---|---|---|---|---|---|
| 1777810355 | 6.67° C | 62% | 1013.1 hPa | 0 mm | - | 90 W/m² | - |
| 1777810051 | 6.11° C | 63% | 1012.9 hPa | 0 mm | - | 107 W/m² | - |
| 1777809749 | 6.11° C | 63% | 1012.9 hPa | 0 mm | - | 72 W/m² | - |
| 1777809446 | 6.11° C | 64% | 1012.6 hPa | 0 mm | - | 84 W/m² | - |
| 1777809144 | 6.11° C | 64% | 1012.8 hPa | 0 mm | - | 70 W/m² | - |
| 1777808842 | 5.56° C | 64% | 1012.6 hPa | 0 mm | - | 69 W/m² | - |
| 1777808538 | 5.56° C | 63% | 1012.9 hPa | 0 mm | - | 67 W/m² | - |
| 1777808235 | 6.11° C | 64% | 1012.7 hPa | 0 mm | - | 69 W/m² | - |
| 1777807934 | 5.56° C | 64% | 1012.7 hPa | 0 mm | - | 70 W/m² | - |
| 1777807631 | 5.56° C | 64% | 1012.6 hPa | 0 mm | - | 64 W/m² | - |
| 1777807329 | 5.56° C | 64% | 1012.6 hPa | 0 mm | - | 53 W/m² | - |
| 1777807024 | 5.56° C | 65% | 1012.6 hPa | 0 mm | - | 44 W/m² | - |
| 1777806721 | 5.56° C | 65% | 1012.4 hPa | 0 mm | - | 42 W/m² | - |
| 1777806417 | 5.56° C | 65% | 1012.2 hPa | 0 mm | - | 38 W/m² | - |
| 1777806114 | 5.56° C | 65% | 1012.3 hPa | 0 mm | - | 31 W/m² | - |
| 1777805810 | 5.56° C | 65% | 1012.3 hPa | 0 mm | - | 26 W/m² | - |
| 1777805508 | 5.56° C | 65% | 1012.2 hPa | 0 mm | - | 21 W/m² | - |
| 1777805205 | 5° C | 65% | 1012.3 hPa | 0 mm | - | 16 W/m² | - |
| 1777804903 | 5.56° C | 65% | 1012.2 hPa | 0 mm | - | 15 W/m² | - |
| 1777804601 | 5° C | 64% | 1012 hPa | 0 mm | - | 13 W/m² | - |
| 1777804299 | 5° C | 65% | 1012.3 hPa | 0 mm | - | 12 W/m² | - |
| 1777803995 | 5° C | 64% | 1012 hPa | 0 mm | - | 11 W/m² | - |
| 1777803692 | 5° C | 64% | 1011.9 hPa | 0 mm | - | 9 W/m² | - |
| 1777803387 | 5° C | 65% | 1012 hPa | 0 mm | - | 6 W/m² | - |
| 1777803086 | 5° C | 64% | 1012.1 hPa | 0 mm | - | 4 W/m² | - |
* Rain latest hour (hover to see other rain measurements)
** Current wind speed in m/s (hover to see current wind gust speed)